Find Te Punaha Atea-1

NORAD ID: 64533 Int'l Des: 2025-135 Owner: TPA Country: NZ operational
LEOCIRCULARRETROGRADESSO

リアルタイム位置

3D地球を読み込み中...

Te Punaha Atea-1について

説明を読み込み中...

次回通過

Passes for default location (London). Set your location on the main map for personalized predictions.

高度履歴

Loading altitude history...

軌道要素

1 64533U 25135F 26104.85942074 .00002227 00000-0 10358-3 0 9992
2 64533 97.4603 220.3480 0006466 60.9821 299.2062 15.20987778 45226
Epoch: Apr 14, 2026 • Age: 14 hours

現在のステータス

高度 529.6 km
速度 7.60 km/s
衛星直下点 -63.46°S, 125.87°W
打ち上げ日 Jun 23, 2025
運用期間 0.8 years
タイプ other

技術仕様

分類 Payload
質量 5.00 kg
乾燥質量 5.00 kg
総質量 5.00 kg
長さ 0.30 m
直径 0.10 m
スパン 3.00 m
形状 Box
製造者 NANAV/TPA
バスタイプ Cubesat 3U
フェーズステータス In Orbit
所有者/国 TPA/NZ

Most Searched